Vorticity
5 5 4 3 4 7 5 5 5 8 7 8 5 8 7 2 6 6 -0 -1 1 4 4 6 6 5 4 4 6 8 5 6 4 4 7 1 1 3 5 7 2 2 1 -1 2 4 3 4 6
3 3 4 7 6 4 2 3 6 6 5 3 4 4 5 7 3 4 4 3 -0 2 6 4 5 6 5 5 6 9 8 6 4 4 5 2 1 5 5 6 4 2 1 3 4 4 3 4 2
8 5 3 3 5 7 6 6 5 4 5 5 2 2 2 5 4 4 4 4 1 -0 2 5 6 4 4 3 3 10 10 6 5 4 4 2 1 4 6 5 3 0 1 4 4 4 3 2 2
7 10 8 3 5 7 4 2 6 7 6 2 6 2 3 3 4 3 4 4 4 2 -0 4 5 5 4 6 4 7 9 8 6 4 4 2 2 4 5 5 3 6 2 4 3 4 3 3 6
13 10 9 10 7 8 10 5 6 8 6 11 6 4 5 3 3 4 4 3 3 3 0 2 4 5 5 5 6 5 8 9 8 6 3 3 1 3 5 4 5 5 8 4 3 4 2 3 2
8 6 7 9 11 8 6 9 5 6 5 5 7 6 5 6 6 7 5 3 2 4 3 0 2 5 5 5 5 7 7 8 9 6 4 3 2 2 5 4 5 4 4 5 4 4 3 2 3
9 9 7 6 10 12 11 7 7 9 7 6 7 6 7 7 7 8 11 3 4 3 5 3 -0 3 4 5 5 9 7 7 8 5 4 3 2 1 4 4 4 6 6 5 4 4 4 3 2
10 9 7 7 10 13 16 15 11 8 9 6 5 7 10 15 9 15 9 15 4 6 3 4 0 -1 6 4 4 7 9 7 7 4 4 3 2 2 3 4 4 7 6 7 5 4 4 4 2
5 13 7 5 12 10 10 10 12 10 9 10 11 6 14 17 8 11 19 17 13 7 5 5 6 -1 3 6 6 4 12 7 6 4 4 4 2 2 3 3 5 5 9 8 5 5 4 4 4
8 9 6 3 9 11 6 9 15 10 10 9 11 9 7 9 15 11 11 14 21 15 7 6 7 7 -0 5 7 6 6 9 6 5 4 3 2 2 3 3 4 5 7 9 8 4 5 4 4
8 6 3 3 2 5 5 5 6 9 9 8 8 4 7 10 8 7 9 5 5 18 12 11 8 6 6 -2 6 7 5 8 6 6 4 3 2 3 2 3 4 5 8 8 9 6 4 5 4
5 7 7 5 3 5 1 5 5 5 6 8 7 6 5 6 6 8 1 8 5 5 1 18 10 9 6 7 -2 6 8 6 6 3 3 3 2 3 4 3 4 4 10 7 9 7 6 4 4
-8 14 8 8 1 7 6 1 2 3 3 8 4 4 5 3 2 2 1 5 5 6 6 4 12 12 8 6 6 1 7 8 6 4 4 3 3 3 3 3 4 3 8 6 6 9 6 5 5
8 7 1 4 7 4 8 6 6 3 4 3 6 6 6 6 5 3 2 4 3 5 9 11 4 15 10 6 5 3 3 8 9 6 5 4 3 3 3 3 4 3 6 8 5 8 8 5 5
2 2 7 2 7 8 2 11 11 6 3 4 7 6 6 4 2 2 4 4 3 4 7 8 8 9 12 9 6 4 3 5 7 7 7 5 4 4 4 3 4 3 4 7 7 6 9 6 5
5 8 2 -1 7 13 7 -2 -2 6 9 6 6 6 6 7 3 4 2 3 5 6 7 6 10 9 10 10 8 9 5 2 5 6 6 7 6 5 4 4 4 3 3 6 7 6 7 8 5
9 5 12 4 13 11 3 3 10 0 4 8 8 7 6 7 3 2 4 4 4 4 5 5 6 12 11 13 9 7 8 4 2 5 6 5 6 6 5 5 5 4 4 5 7 6 5 9 7
21 13 17 18 21 11 7 2 5 10 10 3 6 10 5 4 6 4 3 5 4 4 6 2 4 6 11 10 11 10 9 6 4 4 6 5 5 7 7 4 5 5 5 4 5 8 4 7 9
19 3 5 10 11 15 1 8 13 15 7 6 3 5 8 8 6 6 7 5 2 1 3 6 1 6 8 11 11 9 10 7 2 5 2 7 5 4 6 9 6 5 5 5 5 6 8 4 9
16 19 9 6 5 8 4 12 10 11 14 18 11 6 6 9 7 6 3 5 5 2 3 5 5 3 7 8 11 10 11 11 8 2 4 2 6 5 4 6 8 7 7 8 6 4 7 6 7
16 17 21 14 14 3 10 23 -0 5 9 12 12 13 8 6 7 9 7 3 4 5 4 4 3 2 3 9 8 6 8 10 9 8 4 4 4 4 5 3 5 5 6 7 8 6 4 6 7
25 12 23 39 21 8 11 31 18 30 15 12 3 9 13 9 4 4 7 6 3 1 5 3 1 2 4 4 7 8 10 11 15 11 7 8 -2 5 5 7 3 5 5 5 6 9 2 5 4
30 19 28 21 35 7 -9 -54 67 6 41 22 23 15 9 2 5 5 4 7 6 4 3 3 1 2 0 1 3 7 7 5 9 14 12 6 -4 1 7 3 11 -5 7 4 6 5 9 3 6
32 29 42 2 15 52 -8 -15 -34 13 34 45 26 3 10 18 3 6 15 17 11 8 5 6 6 4 3 5 3 7 7 8 10 9 17 1 10 10 3 2 4 8 -3 3 5 6 7 7 -0
2 -1 15 50 12 6 38 -4 18 -31 61 -7 24 23 19 14 10 13 22 13 15 12 5 4 6 5 2 3 7 8 11 7 8 15 18 -17 31 0 3 3 2 11 4 1 4 5 5 8 10
11 10 3 42 65 -4 23 49 7 -14 -28 19 52 29 34 26 24 22 25 24 17 16 21 17 11 10 6 7 8 8 10 10 7 7 6 10 15 24 3 32 12 -2 1 8 -3 3 5 5 4
27 14 7 -34 12 56 11 10 36 -6 -14 7 -20 -20 -9 10 28 22 16 17 19 15 9 15 14 13 13 10 9 10 8 30 6 11 3 6 17 5 -2 -6 -17 27 6 8 11 9 -1 6 7
30 22 23 11 16 13 51 5 52 14 -30 24 42 30 14 -21 12 18 18 11 15 12 20 15 11 9 13 10 8 11 8 8 10 9 7 11 8 12 9 24 23 11 -9 14 22 6 3 4 7
13 24 -36 14 28 42 36 31 39 25 -40 -6 2 28 19 18 9 12 21 20 11 11 16 15 18 16 13 13 10 10 8 5 -1 -1 4 10 10 9 8 -9 -0 5 14 17 7 20 7 -0 5
20 18 29 10 20 -26 61 41 25 27 8 -30 6 29 11 17 17 19 10 15 15 15 10 17 12 12 12 15 13 11 9 7 6 6 4 5 3 14 11 17 17 13 9 12 -5 27 6 10 0
Height
5810 5809 5809 5809 5812 5808 5810 5817 5820 5822 5822 5823 5823 5824 5826 5826 5828 5833 5835 5835 5837 5838 5840 5841 5843 5844 5845 5848 5849 5851 5853 5855 5857 5859 5861 5863 5864 5865 5866 5866 5867 5867 5867 5868 5868 5868 5867 5866 5865
5801 5802 5801 5801 5802 5801 5805 5811 5813 5815 5815 5813 5816 5818 5820 5821 5822 5825 5831 5832 5834 5835 5837 5838 5840 5842 5843 5845 5847 5850 5852 5854 5856 5858 5860 5862 5864 5865 5865 5866 5867 5868 5868 5868 5868 5868 5867 5867 5866
5792 5792 5793 5792 5793 5796 5800 5802 5802 5805 5806 5808 5810 5813 5815 5817 5818 5821 5825 5826 5829 5831 5833 5835 5837 5838 5841 5842 5845 5848 5850 5852 5854 5856 5858 5861 5862 5864 5864 5865 5867 5867 5868 5868 5868 5868 5868 5868 5867
5783 5783 5784 5783 5785 5790 5792 5791 5793 5795 5798 5799 5803 5805 5810 5812 5814 5816 5820 5820 5822 5825 5829 5831 5833 5836 5838 5840 5842 5845 5848 5851 5853 5854 5857 5858 5860 5862 5863 5864 5866 5867 5867 5867 5868 5868 5868 5868 5868
5772 5772 5773 5774 5777 5780 5783 5782 5784 5786 5789 5793 5794 5798 5802 5804 5807 5809 5812 5815 5817 5820 5824 5827 5829 5832 5835 5837 5839 5841 5844 5848 5850 5853 5855 5857 5858 5860 5861 5863 5864 5866 5866 5867 5867 5868 5868 5868 5868
5763 5763 5763 5766 5769 5770 5771 5774 5773 5777 5780 5784 5787 5790 5793 5797 5799 5801 5805 5808 5811 5815 5818 5822 5825 5828 5832 5834 5836 5838 5841 5844 5848 5850 5853 5855 5857 5858 5859 5861 5862 5864 5865 5866 5866 5867 5868 5868 5867
5754 5753 5754 5756 5759 5760 5765 5765 5765 5771 5770 5774 5778 5780 5785 5790 5790 5793 5797 5799 5804 5808 5811 5817 5820 5824 5827 5830 5833 5835 5838 5840 5844 5847 5850 5853 5854 5856 5858 5859 5861 5862 5863 5864 5865 5865 5867 5867 5866
5744 5743 5746 5748 5751 5754 5756 5756 5758 5758 5762 5764 5766 5769 5776 5782 5784 5786 5788 5793 5797 5801 5805 5810 5815 5819 5822 5825 5829 5832 5834 5837 5841 5843 5847 5850 5852 5854 5855 5857 5858 5860 5861 5863 5863 5864 5865 5866 5866
5734 5735 5738 5741 5743 5746 5745 5745 5747 5750 5752 5753 5757 5761 5767 5771 5774 5778 5781 5785 5789 5796 5799 5803 5809 5814 5818 5820 5823 5827 5830 5834 5837 5840 5843 5846 5848 5851 5853 5854 5856 5858 5859 5861 5861 5862 5862 5864 5865
5724 5726 5730 5734 5733 5735 5735 5737 5741 5742 5743 5744 5748 5752 5758 5764 5766 5771 5775 5778 5782 5788 5792 5797 5802 5808 5813 5816 5819 5821 5825 5830 5833 5837 5840 5843 5845 5848 5850 5851 5853 5855 5857 5859 5858 5859 5860 5862 5863
5711 5716 5717 5720 5721 5722 5724 5727 5728 5733 5736 5738 5742 5747 5750 5755 5759 5762 5767 5770 5774 5780 5784 5789 5794 5801 5806 5811 5814 5817 5820 5825 5829 5833 5836 5839 5842 5844 5846 5848 5850 5851 5854 5856 5856 5856 5857 5859 5860
5693 5702 5702 5707 5708 5709 5711 5716 5719 5722 5730 5734 5735 5738 5741 5745 5750 5756 5761 5765 5769 5774 5778 5782 5787 5794 5799 5804 5809 5813 5815 5819 5823 5827 5831 5835 5837 5840 5843 5845 5846 5848 5850 5852 5853 5854 5854 5856 5857
5677 5688 5687 5691 5692 5695 5697 5703 5707 5714 5718 5721 5725 5729 5733 5737 5743 5748 5753 5757 5761 5765 5770 5775 5779 5786 5792 5797 5802 5806 5810 5814 5818 5821 5825 5829 5833 5836 5839 5840 5843 5845 5846 5848 5849 5850 5852 5853 5853
5662 5663 5669 5672 5679 5682 5681 5688 5690 5703 5705 5710 5715 5719 5725 5731 5735 5739 5744 5749 5755 5759 5764 5768 5772 5778 5784 5790 5794 5799 5803 5808 5812 5816 5820 5824 5827 5831 5834 5836 5839 5841 5843 5844 5845 5846 5848 5849 5850
5636 5635 5642 5652 5665 5667 5667 5666 5679 5688 5690 5696 5703 5708 5713 5720 5726 5730 5737 5742 5746 5751 5754 5760 5764 5770 5775 5781 5786 5792 5797 5802 5806 5810 5815 5819 5822 5825 5829 5831 5834 5837 5839 5840 5841 5842 5843 5845 5847
5609 5605 5612 5644 5643 5647 5646 5652 5671 5669 5674 5681 5688 5694 5701 5707 5716 5721 5726 5732 5737 5741 5747 5752 5757 5762 5767 5772 5778 5784 5791 5796 5800 5804 5808 5813 5817 5820 5823 5826 5829 5831 5834 5836 5837 5838 5839 5840 5842
5578 5579 5591 5611 5617 5616 5612 5637 5646 5651 5657 5665 5673 5680 5687 5695 5703 5711 5717 5721 5727 5732 5737 5742 5749 5755 5760 5764 5768 5774 5781 5788 5794 5798 5802 5806 5810 5814 5817 5820 5824 5826 5828 5830 5832 5834 5835 5835 5837
5550 5551 5561 5575 5594 5588 5592 5612 5621 5635 5639 5648 5655 5665 5673 5680 5691 5699 5705 5711 5717 5723 5728 5733 5740 5746 5751 5756 5759 5763 5770 5777 5786 5791 5796 5799 5803 5807 5811 5814 5817 5821 5823 5825 5826 5828 5830 5831 5832
5521 5527 5533 5550 5567 5561 5573 5583 5599 5609 5617 5628 5638 5647 5658 5668 5673 5682 5691 5698 5705 5711 5717 5724 5730 5737 5742 5748 5753 5756 5763 5769 5778 5784 5789 5793 5797 5801 5805 5808 5811 5814 5817 5819 5821 5822 5824 5825 5826
5489 5495 5504 5518 5535 5541 5545 5557 5576 5580 5596 5608 5616 5627 5641 5651 5657 5665 5675 5684 5692 5700 5706 5714 5720 5727 5733 5739 5746 5750 5754 5760 5767 5773 5779 5784 5789 5793 5797 5801 5804 5806 5810 5813 5814 5815 5818 5820 5821
5466 5470 5484 5495 5513 5516 5527 5530 5544 5555 5572 5583 5594 5608 5619 5631 5643 5651 5659 5670 5677 5687 5695 5702 5709 5716 5722 5729 5735 5740 5745 5750 5757 5763 5771 5777 5782 5786 5790 5793 5797 5800 5803 5805 5808 5809 5811 5812 5814
5437 5456 5464 5475 5488 5498 5512 5512 5523 5535 5547 5560 5575 5586 5602 5615 5625 5632 5643 5653 5663 5674 5682 5688 5696 5704 5712 5718 5725 5731 5738 5744 5751 5757 5763 5768 5773 5777 5782 5785 5788 5792 5795 5798 5801 5803 5804 5806 5806
5414 5438 5444 5458 5465 5483 5492 5494 5508 5515 5523 5541 5557 5570 5585 5597 5607 5615 5628 5639 5648 5655 5666 5675 5682 5690 5700 5708 5715 5723 5728 5733 5740 5745 5750 5757 5763 5768 5772 5777 5780 5784 5787 5791 5793 5795 5796 5798 5799
5416 5422 5430 5443 5452 5454 5478 5477 5490 5499 5513 5529 5544 5554 5562 5575 5588 5599 5611 5620 5631 5642 5650 5661 5671 5678 5687 5696 5705 5711 5719 5724 5729 5735 5741 5748 5753 5759 5764 5768 5772 5775 5778 5782 5785 5787 5789 5790 5792
5406 5415 5424 5430 5434 5437 5462 5464 5474 5495 5506 5517 5529 5541 5551 5561 5572 5582 5593 5603 5615 5624 5635 5646 5657 5667 5675 5684 5692 5700 5707 5712 5717 5725 5731 5736 5742 5749 5755 5759 5763 5766 5769 5772 5776 5778 5780 5782 5784
5402 5410 5417 5422 5427 5438 5452 5450 5464 5496 5501 5510 5518 5528 5539 5546 5558 5571 5584 5594 5604 5615 5623 5631 5643 5654 5663 5673 5681 5689 5696 5701 5706 5714 5721 5726 5731 5737 5744 5747 5752 5756 5758 5762 5766 5768 5771 5773 5774
5403 5407 5416 5418 5425 5432 5443 5450 5469 5483 5492 5502 5511 5519 5528 5541 5551 5561 5575 5583 5593 5603 5612 5621 5630 5641 5651 5660 5669 5677 5684 5689 5696 5703 5710 5716 5721 5727 5733 5737 5741 5744 5749 5751 5755 5759 5761 5764 5765
5401 5407 5413 5416 5420 5424 5431 5446 5461 5475 5489 5496 5503 5511 5522 5533 5543 5551 5562 5573 5583 5593 5601 5609 5620 5630 5638 5647 5658 5666 5673 5680 5686 5692 5699 5706 5711 5716 5721 5725 5731 5735 5738 5741 5743 5747 5750 5753 5755
5403 5407 5409 5412 5418 5424 5432 5445 5456 5470 5486 5491 5497 5505 5516 5527 5536 5544 5552 5562 5571 5581 5590 5600 5610 5618 5628 5639 5647 5654 5662 5669 5675 5682 5687 5694 5700 5705 5710 5714 5718 5723 5727 5730 5732 5734 5737 5740 5744
5401 5404 5405 5411 5416 5420 5431 5443 5449 5463 5476 5486 5493 5501 5512 5520 5529 5537 5547 5554 5564 5573 5582 5592 5600 5608 5619 5629 5635 5642 5650 5657 5664 5672 5676 5684 5689 5695 5699 5703 5707 5712 5716 5719 5722 5724 5726 5728 5731